[{"OBJECT_NAME":"LEMUR-2-SQUIRRELCOMM","OBJECT_ID":"2024-149DQ","EPOCH":"2026-09-12T03:17:52.592928","MEAN_MOTION":15.07989289,"ECCENTRICITY":0.00068372,"INCLINATION":97.6666,"RA_OF_ASC_NODE":335.803,"ARG_OF_PERICENTER":111.2849,"MEAN_ANOMALY":248.911,"EPHEMERIS_TYPE":0,"CLASSIFICATION_TYPE":"U","NORAD_CAT_ID":60578,"ELEMENT_SET_NO":999,"REV_AT_EPOCH":11350,"BSTAR":0.00022428205,"MEAN_MOTION_DOT":0.00003387,"MEAN_MOTION_DDOT":0},{"OBJECT_NAME":"LEMUR-2-SIERRINI","OBJECT_ID":"2024-149DR","EPOCH":"2026-09-12T04:33:52.918848","MEAN_MOTION":15.12539213,"ECCENTRICITY":0.00040242,"INCLINATION":97.6802,"RA_OF_ASC_NODE":338.2489,"ARG_OF_PERICENTER":226.5436,"MEAN_ANOMALY":133.546,"EPHEMERIS_TYPE":0,"CLASSIFICATION_TYPE":"U","NORAD_CAT_ID":60579,"ELEMENT_SET_NO":999,"REV_AT_EPOCH":11360,"BSTAR":0.00046300972,"MEAN_MOTION_DOT":0.00008007,"MEAN_MOTION_DDOT":0},{"OBJECT_NAME":"LEMUR-2-WILSON","OBJECT_ID":"2025-009CP","EPOCH":"2026-09-12T03:40:58.397088","MEAN_MOTION":14.95466797,"ECCENTRICITY":0.00046627,"INCLINATION":97.6968,"RA_OF_ASC_NODE":332.0817,"ARG_OF_PERICENTER":104.5636,"MEAN_ANOMALY":255.6102,"EPHEMERIS_TYPE":0,"CLASSIFICATION_TYPE":"U","NORAD_CAT_ID":62694,"ELEMENT_SET_NO":999,"REV_AT_EPOCH":9035,"BSTAR":0.00015720376,"MEAN_MOTION_DOT":0.00001683,"MEAN_MOTION_DDOT":0},{"OBJECT_NAME":"LEMUR-2-STAR-FOX","OBJECT_ID":"2025-009CR","EPOCH":"2026-09-12T00:55:23.083968","MEAN_MOTION":15.03513743,"ECCENTRICITY":0.00025898,"INCLINATION":97.6899,"RA_OF_ASC_NODE":336.0424,"ARG_OF_PERICENTER":148.5774,"MEAN_ANOMALY":211.5607,"EPHEMERIS_TYPE":0,"CLASSIFICATION_TYPE":"U","NORAD_CAT_ID":62696,"ELEMENT_SET_NO":999,"REV_AT_EPOCH":9060,"BSTAR":0.00030674582,"MEAN_MOTION_DOT":0.00004123,"MEAN_MOTION_DDOT":0},{"OBJECT_NAME":"LEMUR-2-ARIANNA","OBJECT_ID":"2025-009CU","EPOCH":"2026-09-12T04:04:20.524800","MEAN_MOTION":15.03540443,"ECCENTRICITY":0.00026254,"INCLINATION":97.6843,"RA_OF_ASC_NODE":335.8803,"ARG_OF_PERICENTER":158.1815,"MEAN_ANOMALY":201.9523,"EPHEMERIS_TYPE":0,"CLASSIFICATION_TYPE":"U","NORAD_CAT_ID":62699,"ELEMENT_SET_NO":999,"REV_AT_EPOCH":9062,"BSTAR":0.00040495109,"MEAN_MOTION_DOT":0.00005467,"MEAN_MOTION_DDOT":0},{"OBJECT_NAME":"LEMUR-2-ALISIA","OBJECT_ID":"2025-009DB","EPOCH":"2026-09-11T19:06:44.716032","MEAN_MOTION":15.03866262,"ECCENTRICITY":0.0001551,"INCLINATION":97.6902,"RA_OF_ASC_NODE":336.4298,"ARG_OF_PERICENTER":315.2879,"MEAN_ANOMALY":44.8221,"EPHEMERIS_TYPE":0,"CLASSIFICATION_TYPE":"U","NORAD_CAT_ID":62706,"ELEMENT_SET_NO":999,"REV_AT_EPOCH":11317,"BSTAR":0.00037535,"MEAN_MOTION_DOT":0.00005107,"MEAN_MOTION_DDOT":0},{"OBJECT_NAME":"LEMUR-2-ROUNDTRIPPER","OBJECT_ID":"2025-009DG","EPOCH":"2026-09-12T03:48:32.900832","MEAN_MOTION":15.04996349,"ECCENTRICITY":0.00034748,"INCLINATION":97.7212,"RA_OF_ASC_NODE":337.765,"ARG_OF_PERICENTER":177.137,"MEAN_ANOMALY":182.9876,"EPHEMERIS_TYPE":0,"CLASSIFICATION_TYPE":"U","NORAD_CAT_ID":62711,"ELEMENT_SET_NO":999,"REV_AT_EPOCH":9070,"BSTAR":0.00043383987,"MEAN_MOTION_DOT":0.00006095,"MEAN_MOTION_DDOT":0},{"OBJECT_NAME":"LEMUR-2-MYNAMEISJEFF","OBJECT_ID":"2025-009DH","EPOCH":"2026-09-12T03:46:03.288000","MEAN_MOTION":15.04988296,"ECCENTRICITY":0.00013393,"INCLINATION":97.726,"RA_OF_ASC_NODE":338.1987,"ARG_OF_PERICENTER":201.8088,"MEAN_ANOMALY":158.3082,"EPHEMERIS_TYPE":0,"CLASSIFICATION_TYPE":"U","NORAD_CAT_ID":62712,"ELEMENT_SET_NO":999,"REV_AT_EPOCH":9070,"BSTAR":0.00038077828,"MEAN_MOTION_DOT":0.0000534,"MEAN_MOTION_DDOT":0},{"OBJECT_NAME":"LEMUR-2-LEIA-PHILIP","OBJECT_ID":"2025-052AN","EPOCH":"2026-09-12T03:20:56.530752","MEAN_MOTION":14.97590325,"ECCENTRICITY":0.00028511,"INCLINATION":97.6704,"RA_OF_ASC_NODE":145.5795,"ARG_OF_PERICENTER":319.0042,"MEAN_ANOMALY":41.0965,"EPHEMERIS_TYPE":0,"CLASSIFICATION_TYPE":"U","NORAD_CAT_ID":63246,"ELEMENT_SET_NO":999,"REV_AT_EPOCH":8168,"BSTAR":0.00013501116,"MEAN_MOTION_DOT":0.0000152,"MEAN_MOTION_DDOT":0},{"OBJECT_NAME":"LEMUR-2-LIA-MARTIN","OBJECT_ID":"2025-052AQ","EPOCH":"2026-09-12T04:06:38.325024","MEAN_MOTION":14.98408387,"ECCENTRICITY":0.00016411,"INCLINATION":97.674,"RA_OF_ASC_NODE":146.2371,"ARG_OF_PERICENTER":237.7004,"MEAN_ANOMALY":122.406,"EPHEMERIS_TYPE":0,"CLASSIFICATION_TYPE":"U","NORAD_CAT_ID":63248,"ELEMENT_SET_NO":999,"REV_AT_EPOCH":8170,"BSTAR":0.00027220599,"MEAN_MOTION_DOT":0.0000319,"MEAN_MOTION_DDOT":0},{"OBJECT_NAME":"LEMUR-2-DELOITTE-1","OBJECT_ID":"2025-052BB","EPOCH":"2026-09-11T16:40:37.584480","MEAN_MOTION":14.98100693,"ECCENTRICITY":0.00016736,"INCLINATION":97.6776,"RA_OF_ASC_NODE":146.1,"ARG_OF_PERICENTER":135.8711,"MEAN_ANOMALY":224.2645,"EPHEMERIS_TYPE":0,"CLASSIFICATION_TYPE":"U","NORAD_CAT_ID":63259,"ELEMENT_SET_NO":999,"REV_AT_EPOCH":8164,"BSTAR":0.00021997848,"MEAN_MOTION_DOT":0.00002546,"MEAN_MOTION_DDOT":0},{"OBJECT_NAME":"LEMUR-2-EMERSONROSE","OBJECT_ID":"2025-052BD","EPOCH":"2026-09-11T14:00:34.148448","MEAN_MOTION":14.99616485,"ECCENTRICITY":0.00050775,"INCLINATION":97.6762,"RA_OF_ASC_NODE":146.7194,"ARG_OF_PERICENTER":106.5126,"MEAN_ANOMALY":253.6655,"EPHEMERIS_TYPE":0,"CLASSIFICATION_TYPE":"U","NORAD_CAT_ID":63261,"ELEMENT_SET_NO":999,"REV_AT_EPOCH":8168,"BSTAR":0.00028060594,"MEAN_MOTION_DOT":0.00003397,"MEAN_MOTION_DDOT":0},{"OBJECT_NAME":"LEMUR-2-MARACHE-FRAN","OBJECT_ID":"2025-052BE","EPOCH":"2026-09-11T16:45:46.165536","MEAN_MOTION":15.00727451,"ECCENTRICITY":0.00112598,"INCLINATION":97.6669,"RA_OF_ASC_NODE":147.2427,"ARG_OF_PERICENTER":70.7771,"MEAN_ANOMALY":289.4671,"EPHEMERIS_TYPE":0,"CLASSIFICATION_TYPE":"U","NORAD_CAT_ID":63262,"ELEMENT_SET_NO":999,"REV_AT_EPOCH":8173,"BSTAR":0.00029649421,"MEAN_MOTION_DOT":0.00003703,"MEAN_MOTION_DDOT":0},{"OBJECT_NAME":"LEMUR-2-THEFALCONER","OBJECT_ID":"2025-052BG","EPOCH":"2026-09-11T16:02:16.299744","MEAN_MOTION":14.97794968,"ECCENTRICITY":0.00037251,"INCLINATION":97.6735,"RA_OF_ASC_NODE":145.5973,"ARG_OF_PERICENTER":71.2647,"MEAN_ANOMALY":288.8979,"EPHEMERIS_TYPE":0,"CLASSIFICATION_TYPE":"U","NORAD_CAT_ID":63264,"ELEMENT_SET_NO":999,"REV_AT_EPOCH":8163,"BSTAR":0.000051375144,"MEAN_MOTION_DOT":0.00000546,"MEAN_MOTION_DDOT":0},{"OBJECT_NAME":"LEMUR-2-UNTITLED-SC","OBJECT_ID":"2025-061A","EPOCH":"2026-09-11T21:10:51.596832","MEAN_MOTION":15.14003998,"ECCENTRICITY":0.00176794,"INCLINATION":97.5736,"RA_OF_ASC_NODE":229.6875,"ARG_OF_PERICENTER":331.2993,"MEAN_ANOMALY":28.7264,"EPHEMERIS_TYPE":0,"CLASSIFICATION_TYPE":"U","NORAD_CAT_ID":63351,"ELEMENT_SET_NO":999,"REV_AT_EPOCH":8070,"BSTAR":0.00018486618,"MEAN_MOTION_DOT":0.00003301,"MEAN_MOTION_DDOT":0},{"OBJECT_NAME":"LEMUR-2-ESPERANZA","OBJECT_ID":"2025-061B","EPOCH":"2026-09-12T04:25:19.553376","MEAN_MOTION":15.14108459,"ECCENTRICITY":0.00172626,"INCLINATION":97.5744,"RA_OF_ASC_NODE":230.1026,"ARG_OF_PERICENTER":329.6982,"MEAN_ANOMALY":30.325,"EPHEMERIS_TYPE":0,"CLASSIFICATION_TYPE":"U","NORAD_CAT_ID":63352,"ELEMENT_SET_NO":999,"REV_AT_EPOCH":8075,"BSTAR":0.00014698705,"MEAN_MOTION_DOT":0.00002618,"MEAN_MOTION_DDOT":0},{"OBJECT_NAME":"LEMUR-2-KREMPEL-BRO2","OBJECT_ID":"2025-061C","EPOCH":"2026-09-12T04:28:10.464672","MEAN_MOTION":15.14551261,"ECCENTRICITY":0.00179277,"INCLINATION":97.5791,"RA_OF_ASC_NODE":230.749,"ARG_OF_PERICENTER":321.2798,"MEAN_ANOMALY":38.7148,"EPHEMERIS_TYPE":0,"CLASSIFICATION_TYPE":"U","NORAD_CAT_ID":63353,"ELEMENT_SET_NO":999,"REV_AT_EPOCH":8077,"BSTAR":0.00014947119,"MEAN_MOTION_DOT":0.00002697,"MEAN_MOTION_DDOT":0},{"OBJECT_NAME":"LEMUR-2-THERMORAPTOR","OBJECT_ID":"2025-061D","EPOCH":"2026-09-11T21:35:04.417152","MEAN_MOTION":15.14632613,"ECCENTRICITY":0.00176356,"INCLINATION":97.5795,"RA_OF_ASC_NODE":230.5555,"ARG_OF_PERICENTER":321.2908,"MEAN_ANOMALY":38.7059,"EPHEMERIS_TYPE":0,"CLASSIFICATION_TYPE":"U","NORAD_CAT_ID":63354,"ELEMENT_SET_NO":999,"REV_AT_EPOCH":8073,"BSTAR":0.00016832458,"MEAN_MOTION_DOT":0.00003053,"MEAN_MOTION_DDOT":0},{"OBJECT_NAME":"LEMUR-2-NEUROSPICY","OBJECT_ID":"2025-061E","EPOCH":"2026-09-11T22:19:44.429376","MEAN_MOTION":15.14750207,"ECCENTRICITY":0.0015628,"INCLINATION":97.5721,"RA_OF_ASC_NODE":230.1456,"ARG_OF_PERICENTER":325.5019,"MEAN_ANOMALY":34.5197,"EPHEMERIS_TYPE":0,"CLASSIFICATION_TYPE":"U","NORAD_CAT_ID":63355,"ELEMENT_SET_NO":999,"REV_AT_EPOCH":8074,"BSTAR":0.00017017485,"MEAN_MOTION_DOT":0.00003096,"MEAN_MOTION_DDOT":0},{"OBJECT_NAME":"LEMUR-2-TILLINFINITY","OBJECT_ID":"2025-061F","EPOCH":"2026-09-11T22:21:39.243744","MEAN_MOTION":15.15355392,"ECCENTRICITY":0.00165052,"INCLINATION":97.5706,"RA_OF_ASC_NODE":230.4993,"ARG_OF_PERICENTER":312.1264,"MEAN_ANOMALY":47.8564,"EPHEMERIS_TYPE":0,"CLASSIFICATION_TYPE":"U","NORAD_CAT_ID":63356,"ELEMENT_SET_NO":999,"REV_AT_EPOCH":8077,"BSTAR":0.00017298086,"MEAN_MOTION_DOT":0.00003204,"MEAN_MOTION_DDOT":0},{"OBJECT_NAME":"LEMUR-2-KREMPEL-BRO1","OBJECT_ID":"2025-061G","EPOCH":"2026-09-12T04:20:21.501024","MEAN_MOTION":15.15147595,"ECCENTRICITY":0.00171236,"INCLINATION":97.5709,"RA_OF_ASC_NODE":230.6386,"ARG_OF_PERICENTER":312.3806,"MEAN_ANOMALY":47.5976,"EPHEMERIS_TYPE":0,"CLASSIFICATION_TYPE":"U","NORAD_CAT_ID":63357,"ELEMENT_SET_NO":999,"REV_AT_EPOCH":8080,"BSTAR":0.00015161118,"MEAN_MOTION_DOT":0.00002783,"MEAN_MOTION_DDOT":0},{"OBJECT_NAME":"LEMUR-2-LANGER2SPACE","OBJECT_ID":"2025-061H","EPOCH":"2026-09-11T21:28:22.812672","MEAN_MOTION":15.14834107,"ECCENTRICITY":0.0015426,"INCLINATION":97.5713,"RA_OF_ASC_NODE":230.1319,"ARG_OF_PERICENTER":323.8846,"MEAN_ANOMALY":36.1343,"EPHEMERIS_TYPE":0,"CLASSIFICATION_TYPE":"U","NORAD_CAT_ID":63358,"ELEMENT_SET_NO":999,"REV_AT_EPOCH":8074,"BSTAR":0.00017376,"MEAN_MOTION_DOT":0.0000317,"MEAN_MOTION_DDOT":0},{"OBJECT_NAME":"LEMUR-2-BALTO","OBJECT_ID":"2025-052BH","EPOCH":"2026-09-12T03:33:40.677408","MEAN_MOTION":15.00709004,"ECCENTRICITY":0.00093709,"INCLINATION":97.6697,"RA_OF_ASC_NODE":147.7421,"ARG_OF_PERICENTER":130.8838,"MEAN_ANOMALY":229.32,"EPHEMERIS_TYPE":0,"CLASSIFICATION_TYPE":"U","NORAD_CAT_ID":63395,"ELEMENT_SET_NO":999,"REV_AT_EPOCH":8180,"BSTAR":0.00019469214,"MEAN_MOTION_DOT":0.00002409,"MEAN_MOTION_DDOT":0}]